Weather History for Wolf Point, MT

Change the Weather History Date:

Sunday, January 20, 2013

  Actual Average Record
Temperature  
Mean Temperature -1 °F -  
Max Temperature 14 °F 24 °F 36 °F (2014)
Min Temperature -17 °F 1 °F -17 °F (2013)
Degree Days  
Heating Degree Days 66    
Cooling Degree Days 0    
Moisture  
Dew Point -2 °F    
Average Humidity 75    
Maximum Humidity 92    
Minimum Humidity 56    
Precipitation  
Precipitation 0.02 in 0.01 in 0.09 in (1999)
Month to date precipitation 0.07 0.24  
Year to date precipitation 0.07 0.24  
Sea Level Pressure  
Sea Level Pressure 30.53 in    
Wind  
Wind Speed 6 mph (NNW)    
Max Wind Speed 17 mph    
Max Gust Speed 24 mph    
Visibility 6 miles    
Events Snow    
T = Trace of Precipitation, MM = Missing Value Source: NWS Daily Summary

Daily Weather History Graph

Daily Weather History Graph

Search for Another Location

Airport:

Trip Planner

Search our weather history database for the weather conditions in past years. The results will help you decide how hot, cold, wet, or windy it might be!

Date:

Astronomy

Jan. 20, 2013 Rise Set
Actual Time 7:43 AM MST 4:44 PM MST
Civil Twilight 7:08 AM MST 5:18 PM MST
Nautical Twilight 6:30 AM MST 5:56 PM MST
Astronomical Twilight 5:53 AM MST 6:33 PM MST
Moon 11:48 AM MST (1/20) 2:15 AM MST (1/20)
Length of Visible Light 10h 09m
Length of Day
9h 00m
Waxing Gibbous, 67% of the Moon is Illuminated
Jan 20
Waxing Gibbous
Jan 26
Full
Feb 3
Last Quarter
Feb 10
New
Feb 17
First Quarter

Hourly Weather History & Observations

Time (MST) Temp. Windchill Dew Point Humidity Pressure Visibility Wind Dir Wind Speed Gust Speed Precip Events Conditions
12:07 AM 10.4 °F -0.4 °F 6.8 °F 85% 30.27 in 1.0 mi NE 6.9 mph - 0.00 in Snow Light Snow
12:19 AM 10.4 °F 2.2 °F 6.8 °F 85% 30.28 in 2.0 mi ENE 4.6 mph - 0.00 in Snow Light Snow
12:34 AM 10.4 °F 0.8 °F 6.8 °F 85% 30.29 in 1.5 mi NE 5.8 mph - 0.00 in Snow Light Snow
12:45 AM 10.4 °F 2.2 °F 6.8 °F 85% 30.30 in 1.0 mi ENE 4.6 mph - 0.00 in Snow Light Snow
12:53 AM 10.9 °F 2.9 °F 7.0 °F 84% 30.44 in 1.8 mi ENE 4.6 mph - 0.00 in Snow Light Snow
1:03 AM 10.4 °F 4.0 °F 6.8 °F 85% 30.32 in 0.8 mi ENE 3.5 mph - 0.00 in Snow Light Snow
1:10 AM 10.4 °F 2.2 °F 6.8 °F 85% 30.32 in 0.8 mi East 4.6 mph - 0.01 in Snow Light Snow
1:22 AM 10.4 °F 2.2 °F 6.8 °F 85% 30.32 in 1.0 mi East 4.6 mph - 0.01 in Snow Light Snow
1:38 AM 10.4 °F - 6.8 °F 85% 30.33 in 0.8 mi Calm Calm - 0.01 in Snow Light Snow
1:46 AM 10.4 °F - 6.8 °F 85% 30.33 in 1.2 mi Calm Calm - 0.01 in Snow Light Snow
1:53 AM 10.0 °F - 7.0 °F 87% 30.46 in 1.2 mi Calm Calm - 0.01 in Snow Light Snow
2:19 AM 10.4 °F - 6.8 °F 85% 30.35 in 2.0 mi Calm Calm - 0.01 in Snow Light Snow
2:32 AM 10.4 °F - 8.6 °F 92% 30.36 in 3.0 mi Calm Calm - 0.01 in Snow Light Snow
2:40 AM 10.4 °F - 8.6 °F 92% 30.36 in 2.5 mi Calm Calm - 0.01 in Snow Light Snow
2:53 AM 10.9 °F - 8.1 °F 88% 30.51 in 5.0 mi Calm Calm - 0.01 in Snow Light Snow
3:04 AM 10.4 °F 2.2 °F 8.6 °F 92% 30.38 in 2.0 mi WNW 4.6 mph - 0.00 in Snow Light Snow
3:35 AM 14.0 °F 1.2 °F 8.6 °F 79% 30.40 in 1.8 mi North 10.4 mph - 0.00 in Snow Light Snow
3:44 AM 14.0 °F 2.0 °F 8.6 °F 79% 30.41 in 2.0 mi NNW 9.2 mph - 0.00 in Snow Light Snow
3:53 AM 14.0 °F -0.8 °F 8.1 °F 77% 30.54 in 3.0 mi North 13.8 mph 24.2 mph 0.00 in Snow Light Snow
4:06 AM 12.2 °F -4.3 °F 5.0 °F 73% 30.43 in 8.0 mi North 16.1 mph - 0.00 in   Overcast
4:27 AM 8.6 °F -4.7 °F 1.4 °F 73% 30.44 in 10.0 mi North 9.2 mph - 0.00 in   Mostly Cloudy
4:53 AM 8.1 °F -3.2 °F -0.0 °F 70% 30.59 in 10.0 mi NNW 6.9 mph - 0.00 in   Clear
5:53 AM 7.0 °F -3.3 °F -0.9 °F 70% 30.64 in 10.0 mi North 5.8 mph - N/A   Overcast
6:49 AM 5.0 °F -12.3 °F -0.4 °F 78% 30.52 in 8.0 mi NNE 13.8 mph - N/A   Mostly Cloudy
6:53 AM 5.0 °F -11.6 °F -2.0 °F 73% 30.67 in 6.0 mi North 12.7 mph 16.1 mph N/A   Haze
7:11 AM 3.2 °F -16.5 °F -4.0 °F 72% 30.54 in 10.0 mi North 17.3 mph - N/A   Overcast
7:53 AM -0.0 °F -18.0 °F -7.1 °F 72% 30.72 in 10.0 mi NNE 12.7 mph - N/A   Overcast
8:53 AM -2.9 °F -20.8 °F -11.9 °F 65% 30.76 in 10.0 mi North 11.5 mph - N/A   Mostly Cloudy
9:53 AM -4.0 °F -22.1 °F -13.0 °F 65% 30.78 in 10.0 mi NNW 11.5 mph - N/A   Clear
10:53 AM -4.0 °F -24.5 °F -13.0 °F 65% 30.63 in 10.0 mi NW 15.0 mph - N/A   Clear
11:53 AM -2.9 °F -20.8 °F -13.0 °F 62% 30.76 in 10.0 mi WNW 11.5 mph - N/A   Clear
12:53 PM -2.9 °F -20.8 °F -13.0 °F 62% 30.73 in 10.0 mi NW 11.5 mph - N/A   Clear
1:53 PM -2.9 °F -19.8 °F -15.0 °F 56% 30.73 in 10.0 mi NW 10.4 mph - N/A   Clear
2:53 PM -2.9 °F -19.8 °F -15.0 °F 56% 30.71 in 10.0 mi West 10.4 mph - N/A   Clear
3:53 PM -4.0 °F -20.2 °F -15.0 °F 59% 30.70 in 10.0 mi West 9.2 mph - N/A   Clear
4:53 PM -7.1 °F -19.9 °F -17.0 °F 62% 30.71 in 10.0 mi WNW 5.8 mph - N/A   Clear
5:53 PM -8.0 °F -21.0 °F -18.0 °F 61% 30.71 in 10.0 mi West 5.8 mph - N/A   Clear
6:53 PM -9.0 °F -25.2 °F -17.0 °F 68% 30.71 in 10.0 mi West 8.1 mph - N/A   Clear
7:53 PM -11.9 °F - -18.0 °F 74% 30.70 in 10.0 mi Calm Calm - N/A   Clear
8:53 PM -8.0 °F -25.0 °F -15.0 °F 71% 30.69 in 10.0 mi West 9.2 mph - N/A   Clear
9:53 PM -5.1 °F -17.6 °F -13.0 °F 69% 30.69 in 10.0 mi WNW 5.8 mph - N/A   Clear
10:53 PM -5.1 °F -20.4 °F -11.9 °F 72% 30.66 in 10.0 mi West 8.1 mph - N/A   Clear
11:53 PM -4.0 °F -22.1 °F -14.1 °F 62% 30.64 in 10.0 mi NW 11.5 mph - N/A   Mostly Cloudy